Weather History for Le Puy, France

Change the Weather History Date:

Thursday, January 24, 2013

  Actual Average Record
Temperature  
Mean Temperature 30 °F -  
Max Temperature 32 °F - - ()
Min Temperature 28 °F - - ()
Degree Days  
Heating Degree Days 35    
Moisture  
Dew Point 27 °F    
Average Humidity 87    
Maximum Humidity 100    
Minimum Humidity 72    
Precipitation  
Precipitation 0.00 in - - ()
Sea Level Pressure  
Sea Level Pressure 29.67 in    
Wind  
Wind Speed 6 mph ()    
Max Wind Speed 16 mph    
Max Gust Speed 25 mph    
Visibility 6.5 miles    
Events      
T = Trace of Precipitation, MM = Missing Value Source: Averaged Metar Reports

Daily Weather History Graph

Daily Weather History Graph

Search for Another Location

Airport:

Trip Planner

Search our weather history database for the weather conditions in past years. The results will help you decide how hot, cold, wet, or windy it might be!

Date:

Astronomy

Jan. 24, 2013 Rise Set
Actual Time 8:13 AM CET 5:41 PM CET
Civil Twilight 7:41 AM CET 6:13 PM CET
Nautical Twilight 7:05 AM CET 6:49 PM CET
Astronomical Twilight 6:30 AM CET 7:24 PM CET
Moon 3:28 PM CET (1/24) 6:01 AM CET (1/24)
Length of Visible Light 10h 32m
Length of Day
9h 28m
Waxing Gibbous, 93% of the Moon is Illuminated
Jan 24
Waxing Gibbous
Jan 27
Full
Feb 3
Last Quarter
Feb 10
New
Feb 17
First Quarter

Hourly Weather History & Observations

Time (CET) Temp. Windchill Dew Point Humidity Pressure Visibility Wind Dir Wind Speed Gust Speed Precip Events Conditions
12:00 AM 32.0 °F 27.5 °F 26.6 °F 80% 29.65 in 6.2 mi NNW 4.6 mph - N/A   Overcast
12:30 AM 30.2 °F - 26.6 °F 86% 29.62 in 6.2 mi NNW 2.3 mph - N/A   Mostly Cloudy
1:00 AM 31 °F - 29 °F 88%  in 12 mi ENE 4.6 mph - -   Clear
1:00 AM 30.2 °F 25.4 °F 28.4 °F 93% 29.59 in 6.2 mi ENE 4.6 mph - N/A   Overcast
1:30 AM 30.2 °F - 28.4 °F 93% 29.59 in 6.2 mi Calm Calm - N/A   Overcast
2:00 AM 30.2 °F - 28.4 °F 93% 29.59 in 6.2 mi Variable 2.3 mph - N/A   Overcast
2:30 AM 30.2 °F - 28.4 °F 93% 29.59 in 6.2 mi Calm Calm - N/A   Overcast
3:00 AM 32.0 °F - 28.4 °F 87% 29.59 in 6.2 mi Calm Calm - N/A   Overcast
3:30 AM 32.0 °F - 28.4 °F 87% 29.59 in 6.2 mi Calm Calm - N/A   Overcast
4:00 AM 30.2 °F - 28.4 °F 93% 29.59 in 6.2 mi ENE 2.3 mph - N/A   Overcast
4:30 AM 30.2 °F - 28.4 °F 93% 29.59 in 6.2 mi Calm Calm - N/A   Overcast
5:00 AM 30.2 °F - 28.4 °F 93% 29.59 in 6.2 mi Calm Calm - N/A   Overcast
5:30 AM 30.2 °F - 28.4 °F 93% 29.59 in 6.2 mi Variable 2.3 mph - N/A   Overcast
6:00 AM 30.2 °F - 28.4 °F 93% 29.56 in 6.2 mi Variable 2.3 mph - N/A   Overcast
6:30 AM 30.2 °F - 28.4 °F 93% 29.56 in 6.2 mi East 2.3 mph - N/A   Overcast
7:00 AM 30 °F - 29 °F 93%  in 7 mi ENE 2.3 mph - -   Clear
7:00 AM 30.2 °F - 28.4 °F 93% 29.56 in 6.2 mi ENE 2.3 mph - N/A   Overcast
7:30 AM 30.2 °F 23.4 °F 30.2 °F 100% 29.59 in 5.0 mi NE 6.9 mph - N/A   Mostly Cloudy
8:00 AM 30.2 °F 26.7 °F 30.2 °F 100% 29.59 in 3.7 mi ENE 3.5 mph - N/A   Overcast
8:30 AM 30.2 °F 26.7 °F 30.2 °F 100% 29.59 in 5.6 mi Variable 3.5 mph - N/A   Overcast
9:00 AM 30.2 °F 25.4 °F 28.4 °F 93% 29.62 in 6.2 mi NNE 4.6 mph - N/A   Overcast
9:30 AM 30.2 °F 26.7 °F 28.4 °F 93% 29.62 in 6.2 mi NNE 3.5 mph - N/A   Overcast
10:00 AM 30.2 °F 24.3 °F 28.4 °F 93% 29.62 in 6.2 mi NNE 5.8 mph - N/A   Overcast
10:30 AM 30.2 °F 24.3 °F 28.4 °F 93% 29.62 in 6.2 mi NNE 5.8 mph - N/A   Overcast
11:00 AM 30.2 °F 24.3 °F 28.4 °F 93% 29.65 in 6.2 mi NNE 5.8 mph - N/A   Overcast
11:30 AM 32.0 °F 25.6 °F 28.4 °F 87% 29.65 in 6.2 mi NNE 6.9 mph - N/A   Overcast
12:00 PM 32.0 °F 26.4 °F 28.4 °F 87% 29.65 in 6.2 mi North 5.8 mph - N/A   Overcast
12:30 PM 32.0 °F 23.0 °F 28.4 °F 87% 29.65 in 6.2 mi NNW 11.5 mph - N/A   Overcast
1:00 PM 33 °F - 27 °F 72%  in 12 mi NNW 10.4 mph - -   Clear
1:00 PM 32.0 °F 23.6 °F 26.6 °F 80% 29.65 in 6.2 mi NNW 10.4 mph - N/A   Overcast
1:30 PM 32.0 °F 22.1 °F 28.4 °F 87% 29.65 in 6.2 mi NNW 13.8 mph - N/A   Overcast
2:00 PM 32.0 °F 23.0 °F 28.4 °F 87% 29.65 in 6.2 mi NNW 11.5 mph - N/A   Overcast
2:30 PM 32.0 °F 21.6 °F 26.6 °F 80% 29.65 in 6.2 mi North 15.0 mph - N/A   Overcast
3:00 PM 32.0 °F 21.6 °F 26.6 °F 80% 29.68 in 6.2 mi North 15.0 mph - N/A   Overcast
3:30 PM 32.0 °F 22.1 °F 26.6 °F 80% 29.68 in 6.2 mi North 13.8 mph - N/A   Overcast
4:00 PM 32.0 °F 21.2 °F 26.6 °F 80% 29.68 in 6.2 mi North 16.1 mph - N/A   Overcast
4:30 PM 30.2 °F 19.8 °F 26.6 °F 86% 29.71 in 6.2 mi North 13.8 mph - N/A   Overcast
5:00 PM 30.2 °F 21.9 °F 26.6 °F 86% 29.71 in 6.2 mi North 9.2 mph - N/A   Overcast
5:30 PM 30.2 °F 19.8 °F 26.6 °F 86% 29.74 in 6.2 mi NNW 13.8 mph - N/A   Overcast
6:00 PM 30.2 °F 20.8 °F 26.6 °F 86% 29.74 in 6.2 mi NNW 11.5 mph - N/A   Overcast
6:30 PM 30.2 °F 20.2 °F 26.6 °F 86% 29.74 in 6.2 mi North 12.7 mph - N/A   Overcast
7:00 PM 30 °F - 25 °F 75%  in 12 mi North 12.7 mph - -   Clear
7:00 PM 30.2 °F 20.2 °F 24.8 °F 80% 29.77 in 6.2 mi North 12.7 mph - N/A   Overcast
7:30 PM 30.2 °F 19.3 °F 24.8 °F 80% 29.77 in 6.2 mi North 15.0 mph - N/A   Overcast
8:00 PM 30.2 °F 19.3 °F 24.8 °F 80% 29.80 in 6.2 mi NNW 15.0 mph - N/A   Overcast
8:30 PM 30.2 °F 19.8 °F 24.8 °F 80% 29.80 in 6.2 mi North 13.8 mph 25.3 mph N/A   Overcast
9:00 PM 30.2 °F 20.2 °F 24.8 °F 80% 29.80 in 6.2 mi North 12.7 mph - N/A   Overcast
9:30 PM 28.4 °F 17.0 °F 24.8 °F 86% 29.80 in 6.2 mi North 15.0 mph - N/A   Overcast
10:00 PM 28.4 °F 18.5 °F 26.6 °F 93% 29.80 in 6.2 mi North 11.5 mph - N/A   Overcast
10:30 PM 28.4 °F 18.0 °F 24.8 °F 86% 29.83 in 6.2 mi NNW 12.7 mph - N/A   Overcast
11:00 PM 28.4 °F 18.5 °F 23.0 °F 80% 29.83 in 6.2 mi North 11.5 mph - N/A   Overcast
11:30 PM 28.4 °F 18.5 °F 23.0 °F 80% 29.83 in 6.2 mi NNW 11.5 mph - N/A   Overcast